Zurück zum Katalog

COSMOS 1109

AktivNavigationHEO
NORAD 11417·PAYLOAD·🇷🇺 Russia

Gestartet Jun 27, 1979 von Plesetsk Cosmodrome

Loading…

Nächste Überflüge (nächste 24 Stunden)

TLE

AktuellSource: Space-Track

Epoche: Sep 13, 2026, 21:02 UTC

1 11417U 79058A   26256.87701910 -.00000713  00000-0  00000-0 0  9999
2 11417  70.6931 186.2657 6043802 193.1296 138.8327  2.01383658235627

Verfolge COSMOS 1109 in Echtzeit mit AllMySat

Download on the App Store